This is the latest recevied weather packets stored in our database for station/object KD9JJA. If no packets are shown the sender has not sent any weather packets the latest 10 day(s).
| Time | Temp. | Humidity | Pressure | Rain* | Wind** | Luminosity | Snow |
|---|---|---|---|---|---|---|---|
| 1777354543 | 15° C | 99% | 1009.9 hPa | 0 mm | - | 0 W/m² | - |
| 1777354239 | 15.56° C | 99% | 1010.3 hPa | 0 mm | - | 0 W/m² | - |
| 1777353936 | 15.56° C | 99% | 1010.4 hPa | 0 mm | - | 0 W/m² | - |
| 1777353633 | 15.56° C | 99% | 1009.3 hPa | 0 mm | - | 0 W/m² | - |
| 1777353331 | 15° C | 99% | 1008.6 hPa | 0 mm | - | 0 W/m² | - |
| 1777353029 | 15.56° C | 99% | 1010 hPa | 0 mm | - | 0 W/m² | - |
| 1777352727 | 15.56° C | 99% | 1010.4 hPa | 0 mm | - | 0 W/m² | - |
| 1777352426 | 15.56° C | 99% | 1010.5 hPa | 0 mm | - | 0 W/m² | - |
| 1777352122 | 15.56° C | 99% | 1010.3 hPa | 0 mm | - | 0 W/m² | - |
| 1777351819 | 15.56° C | 99% | 1009.6 hPa | 0 mm | - | 0 W/m² | - |
| 1777351517 | 15.56° C | 99% | 1009.2 hPa | 1.27 mm | - | 0 W/m² | - |
| 1777351215 | 15.56° C | 99% | 1008.5 hPa | 1.27 mm | - | 0 W/m² | - |
| 1777350914 | 15.56° C | 99% | 1010 hPa | 1.78 mm | - | 0 W/m² | - |
| 1777350610 | 15.56° C | 99% | 1010.2 hPa | 1.78 mm | - | 0 W/m² | - |
| 1777350307 | 15.56° C | 99% | 1011.3 hPa | 1.27 mm | - | 0 W/m² | - |
| 1777350003 | 15.56° C | 99% | 1011 hPa | 3.05 mm | - | 0 W/m² | - |
| 1777349700 | 15.56° C | 99% | 1010.5 hPa | 3.05 mm | - | 0 W/m² | - |
| 1777349398 | 15.56° C | 99% | 1010.5 hPa | 6.1 mm | - | 0 W/m² | - |
| 1777349096 | 16.11° C | 99% | 1010.7 hPa | 7.87 mm | - | 0 W/m² | - |
| 1777348793 | 15.56° C | 99% | 1011.2 hPa | 7.87 mm | - | 0 W/m² | - |
| 1777348491 | 15.56° C | 99% | 1012.9 hPa | 27.69 mm | - | 0 W/m² | - |
| 1777348188 | 15.56° C | 99% | 1013 hPa | 62.48 mm | - | 0 W/m² | - |
| 1777347886 | 16.11° C | 99% | 1014 hPa | 71.88 mm | - | 0 W/m² | - |
| 1777347584 | 15.56° C | 99% | 1014.1 hPa | 27.69 mm | - | 0 W/m² | - |
| 1777347279 | 16.11° C | 99% | 1012.8 hPa | 0 mm | - | 0 W/m² | - |
* Rain latest hour (hover to see other rain measurements)
** Current wind speed in m/s (hover to see current wind gust speed)